Meath Environmental Platform

Observations

Time Sensor AQI SAQ Temp °C Hum % Pres Pa CO μg/m³ H₂S μg/m³ NO μg/m³ NO₂ μg/m³ O₃ μg/m³ SO₂ μg/m³ CO₂e PPM VOC PPM PM1 μg/m³ PM2.5 μg/m³ PM4 μg/m³ PM10 μg/m³ TPS µm
Thursday 13 August 2026
04:05 Trim Patrick St 2 21 77 38,460 0 5.47 1.46 13.18 37.57 5.81 8 11.74 12.91
04:03 Trim Patrick St 2 21 78 38,460 0 9.83 1.48 28.33 21.83 5.03 8 13.11 14.42
04:02 Trim Patrick St 2 21 78 38,460 0 10.14 1.49 14.06 28.3 5.42 5.43 9.59 10.55
04:01 Trim Patrick St 2 21 76 38,460 0 12.88 1.32 28.62 32.87 5.31 7.14 11.13 12.24
04:00 Trim Patrick St 2 21 77 38,460 0 8.01 1.3 22.42 27.4 5.25 5.43 9.62 10.59
03:59 Trim Patrick St 2 21 78 38,460 0 6.53 1.24 14.9 27.53 5.28 7.14 10.31 11.34
03:53 Trim Patrick St 2 21 78 38,460 0 10.01 1.36 13.79 35.84 5.85 5.43 8.9 9.79
03:52 Trim Patrick St 2 21 78 38,460 0 11.93 1.35 18.89 27.39 5.48 8.86 12.44 13.68
03:51 Trim Patrick St 2 21 78 38,460 0 10.7 1.37 38.06 22.7 4.92 7.14 11.03 12.13
03:50 Trim Patrick St 2 21 78 38,460 0 8.69 1.33 17.06 32.28 5.9 8 11.73 12.91
03:49 Trim Patrick St 2 21 77 38,460 0 8.48 1.36 19.46 26.63 5.34 8 11.75 12.92
03:48 Trim Patrick St 2 21 77 38,460 0 12.41 1.37 13.68 35.72 6.26 5.43 10.35 11.39
03:48 Trim Market St 2 21.6 74 35,207 0.05 0 1.12 15.64 39.54 0 2.85 5.29 8.74
03:47 Trim Patrick St 2 21 77 38,460 0 12.94 1.35 42.57 20.24 4.7 7.14 10.36 11.4
03:47 Trim Market St 2 21.5 73 35,456 0.05 0 1.12 15.53 43.32 0 4.28 4.82 7.53
03:46 Trim Patrick St 2 21 76 38,460 0 7.69 1.31 18.18 26.65 5.58 7.14 10.42 11.46
03:46 Trim Market St 2 21.6 73 35,636 0.06 0 1.12 16.55 41.19 0 3.56 4.82 7.53
03:45 Trim Patrick St 2 21 77 38,460 0 7.14 1.4 17.1 29.83 5.51 7.14 11.74 12.91
03:45 Trim Market St 2 21.6 73 35,995 0.05 0 1.12 16.12 41.34 0 3.56 5.31 8.14
03:44 Trim Patrick St 2 21 77 38,460 0 10.25 1.39 19.73 31.95 5.62 7.14 11.04 12.15